カタログに戻る

KUIPER-00386

運用中通信LEO
NORAD 68921·PAYLOAD·🇺🇸 United States

打ち上げ Apr 30, 2026 から Guiana Space Centre

Loading…

次のパス (今後24時間)

TLE

最新Source: CelesTrak SupGP

元期: Sep 14, 2026, 23:42 UTC

1 68921C 26098C   26257.98796296 -.00003116  00000+0 -40780-3 0  2570
2 68921  51.9001  16.0577 0000453 105.2936 151.1966 14.79941748    12

AllMySatでKUIPER-00386をリアルタイム追跡

Download on the App Store